Time_in_sec,Mx,My,Mz
1323444722.14853001,-0.29858080,0.48912656,-0.82264316
1323444722.20069456,-0.29756156,0.49092346,-0.82272756
1323444722.24988818,-0.29910693,0.49072054,-0.82484978
1323444722.30456376,-0.30043113,0.48927253,-0.82325530
1323444722.34852648,-0.29969138,0.48997009,-0.82156301
1323444722.40952826,-0.29937249,0.49166343,-0.82257712
1323444722.44852400,-0.29951352,0.49118578,-0.82283634
1323444722.49827003,-0.29887077,0.49118006,-0.82292855
1323444722.54993558,-0.29936707,0.49094066,-0.82257169
1323444722.60165048,-0.30020061,0.48853022,-0.82158065
1323444722.64860106,-0.30089512,0.49037352,-0.82443553
1323444722.70278001,-0.29890928,0.49046564,-0.82369018
1323444722.74870753,-0.29839563,0.49034086,-0.82378864
1323444722.80062652,-0.29968956,0.48854959,-0.82397419
1323444722.85005212,-0.29875278,0.48867816,-0.82570797
1323444722.90054154,-0.29811072,0.49071750,-0.82555985
1323444722.94950962,-0.29788923,0.49117979,-0.82389432
1323444723.00154090,-0.29831403,0.49095011,-0.82455313
1323444723.04863405,-0.30070567,0.49024048,-0.82340467
1323444723.10059214,-0.30119759,0.48843646,-0.82316387
1323444723.14902234,-0.30058917,0.49086642,-0.82582414
1323444723.20053339,-0.29865825,0.49048784,-0.82609797
1323444723.24851680,-0.29964331,0.49193224,-0.82501525
1323444723.30056143,-0.29902092,0.48976517,-0.82573038
1323444723.34961152,-0.30000147,0.49060726,-0.82464314
1323444723.40051603,-0.29972041,0.49072069,-0.82424623
1323444723.44972277,-0.29837337,0.49204403,-0.82545626
1323444723.50051260,-0.29759791,0.49167550,-0.82553864
1323444723.54851770,-0.30019656,0.48953846,-0.82592058
1323444723.60051918,-0.30002996,0.48953009,-0.82527423
1323444723.64852691,-0.30001429,0.48918957,-0.82730997
1323444723.70164919,-0.29937765,0.49195167,-0.82716733
1323444723.74959087,-0.29770595,0.49049318,-0.82757515
1323444723.80055690,-0.30011594,0.48930588,-0.82680660
1323444723.84956908,-0.29894775,0.48857167,-0.82686484
1323444723.89783812,-0.29954931,0.48893043,-0.82600826
1323444723.94852018,-0.29903072,0.49087301,-0.82803273
1323444724.00550890,-0.29822057,0.48977610,-0.82759821
1323444724.04850960,-0.30052781,0.49027663,-0.82709098
1323444724.10064101,-0.29910129,0.49074280,-0.82701617
1323444724.14959431,-0.29863876,0.49159011,-0.82788897
1323444724.20053649,-0.29827800,0.49159139,-0.82837898
1323444724.25255919,-0.29802179,0.49014580,-0.82860953
1323444724.29769611,-0.30002612,0.48979327,-0.82744235
1323444724.34851122,-0.29782054,0.48940906,-0.82744628
1323444724.40556169,-0.29781377,0.49123546,-0.82937050
1323444724.45255327,-0.29840788,0.49137557,-0.83067846
1323444724.50156426,-0.29887009,0.49223563,-0.83185691
1323444724.54962802,-0.30014578,0.49113926,-0.82937014
1323444724.60051584,-0.29861140,0.48968357,-0.82991290
1323444724.64953709,-0.29875660,0.49151561,-0.83222789
1323444724.69998765,-0.29842705,0.49198067,-0.83093870
1323444724.74866438,-0.29774320,0.49136564,-0.83038712
1323444724.80051947,-0.29890609,0.49041477,-0.83044404
1323444724.84853339,-0.29833651,0.49042299,-0.83181477
1323444724.90052176,-0.29928759,0.49200454,-0.83238786
1323444724.94956279,-0.30007496,0.49201450,-0.83255851
1323444725.00155663,-0.29926112,0.49139807,-0.83199978
1323444725.04954243,-0.30034804,0.49103415,-0.83065486
1323444725.09839869,-0.30157399,0.49069676,-0.83173913
1323444725.14953923,-0.29856324,0.49260807,-0.83324456
1323444725.20552039,-0.29842803,0.49113882,-0.83106023
1323444725.24849510,-0.30052274,0.49212670,-0.83130938
1323444725.30054355,-0.29806638,0.49101967,-0.83154935
1323444725.34854078,-0.29752436,0.49100977,-0.83113724
1323444725.40156841,-0.29910284,0.49054921,-0.83160275
1323444725.44853044,-0.30046308,0.49274015,-0.83245748
1323444725.50048542,-0.29952577,0.49104092,-0.83213913
1323444725.54852605,-0.30025923,0.49067971,-0.83141214
1323444725.60554194,-0.30065006,0.49176675,-0.83131379
1323444725.64884162,-0.29842883,0.49222159,-0.83094054
1323444725.70166135,-0.30105373,0.49261567,-0.83146942
1323444725.75042582,-0.30185834,0.49395210,-0.83177787
1323444725.80062914,-0.29854646,0.48979151,-0.82876319
1323444725.84888434,-0.29965779,0.49053821,-0.82997632
1323444725.89814067,-0.29981136,0.49270937,-0.83012766
1323444725.94947910,-0.29908350,0.49186873,-0.83110130
1323444726.00158405,-0.29948750,0.49101028,-0.82920569
1323444726.04851365,-0.29966423,0.49159873,-0.82769030
1323444726.10163879,-0.29814586,0.49305639,-0.83042121
1323444726.14959359,-0.29880998,0.49123850,-0.82866049
1323444726.20050979,-0.29850224,0.49267003,-0.82763427
1323444726.24953175,-0.29893640,0.49075809,-0.82866395
1323444726.30357122,-0.29900798,0.49096560,-0.82535589
1323444726.34959340,-0.30037779,0.49072921,-0.82440972
1323444726.40052247,-0.29895127,0.49119538,-0.82433492
1323444726.44952130,-0.29897320,0.49119955,-0.82471848
1323444726.50051308,-0.29891658,0.49046704,-0.82381803
1323444726.55004025,-0.29944319,0.49057093,-0.82168114
1323444726.60157037,-0.29858541,0.48876655,-0.82276827
1323444726.64858794,-0.29863575,0.48983541,-0.82124937
1323444726.69789577,-0.29969013,0.49155697,-0.82361329
1323444726.74853778,-0.29800549,0.49129888,-0.82364666
1323444726.80063939,-0.29975474,0.48887619,-0.82053918
1323444726.84859037,-0.30026615,0.49142969,-0.82236952
1323444726.90165663,-0.29809454,0.48972875,-0.82313055
1323444726.95023751,-0.29853308,0.49056095,-0.82163125
1323444727.00051165,-0.29810995,0.49081430,-0.82326657
1323444727.04853868,-0.30008784,0.48985529,-0.82171136
1323444727.09771466,-0.29943159,0.48922217,-0.81937695
1323444727.14963174,-0.29941773,0.48912260,-0.82141453
1323444727.20054913,-0.29949799,0.49106252,-0.82257974
1323444727.24970675,-0.30020669,0.49129808,-0.82134581
1323444727.30162787,-0.29997244,0.48985663,-0.82195991
1323444727.34974742,-0.29985166,0.48913524,-0.82220304
1323444727.40052891,-0.29862553,0.49139726,-0.82087761
1323444727.44850993,-0.29901913,0.49070382,-0.82331562
1323444727.50051618,-0.29952636,0.49094763,-0.82309026
1323444727.54868460,-0.29901746,0.49068016,-0.82102138
1323444727.60050750,-0.29780278,0.48861387,-0.82043040
1323444727.64872742,-0.29997966,0.49082035,-0.82196718
1323444727.70051479,-0.30039084,0.48974603,-0.82249182
1323444727.74852943,-0.29986247,0.49058077,-0.82221395
1323444727.80051923,-0.30003482,0.48960459,-0.82081455
1323444727.84852195,-0.29906598,0.49032852,-0.82191366
1323444727.90052462,-0.30029944,0.48924747,-0.82095397
1323444727.94853830,-0.30009493,0.49178129,-0.82159799
1323444728.00052595,-0.29924068,0.49142107,-0.82256818
1323444728.04947209,-0.29900295,0.48971504,-0.82088631
1323444728.10165143,-0.29959807,0.49019289,-0.81990278
1323444728.14955997,-0.29944947,0.49141416,-0.82168746
1323444728.20164299,-0.29826024,0.49079624,-0.82136309
1323444728.24950314,-0.29944408,0.49069139,-0.82168204
1323444728.30231667,-0.30031487,0.49033302,-0.82108998
1323444728.34854865,-0.30052817,0.48974887,-0.82262677
1323444728.40152931,-0.29845273,0.48958331,-0.82034546
1323444728.44858980,-0.29982397,0.49129519,-0.82145226
1323444728.49819946,-0.30058670,0.48976001,-0.82364959
1323444728.55002260,-0.29840228,0.48947677,-0.82174379
1323444728.60061312,-0.29979211,0.48996592,-0.82105875
1323444728.64992976,-0.29971513,0.49021518,-0.82194841
1323444728.70304680,-0.29982218,0.49105427,-0.82145047
1323444728.74850059,-0.29812628,0.49202031,-0.82340354
1323444728.80115867,-0.30004662,0.49020830,-0.82094693
1323444728.84052038,-0.29962260,0.49034119,-0.82258141
1323444728.90063715,-0.29870927,0.49360177,-0.82433879
1323444728.94993591,-0.29949889,0.49118298,-0.82258064
1323444729.00059795,-0.29705423,0.49164194,-0.82283235
1323444729.04855275,-0.29861897,0.49129906,-0.82304305
1323444729.09802961,-0.29813102,0.49069801,-0.82364923
1323444729.14863825,-0.29769245,0.49104536,-0.82273561
1323444729.20553875,-0.30007568,0.49095893,-0.82363015
1323444729.24852657,-0.29863539,0.49036321,-0.82571352
1323444729.30163980,-0.29849368,0.48997533,-0.82328165
1323444729.35016346,-0.30025509,0.49072918,-0.82453042
1323444729.40164924,-0.29861805,0.48999903,-0.82545513
1323444729.44944763,-0.29873604,0.49132136,-0.82508868
1323444729.50048900,-0.29808238,0.49083239,-0.82504940
1323444729.54850364,-0.29905674,0.48986894,-0.82407635
1323444729.60055161,-0.29846609,0.48999342,-0.82506442
1323444729.64853716,-0.29873976,0.49084091,-0.82521290
1323444729.68970084,-0.29992539,0.49097699,-0.82553369
1323444729.75093865,-0.29792649,0.49205229,-0.82670623
1323444729.80063772,-0.30077481,0.49244222,-0.82661015
1323444729.84870601,-0.29956371,0.49085781,-0.82602274
1323444729.89774013,-0.29970554,0.49146295,-0.82616228
1323444729.94928384,-0.30025667,0.49171516,-0.82670403
1323444730.00609756,-0.29986414,0.49060443,-0.82450813
1323444730.04861212,-0.29993463,0.49025699,-0.82578391
1323444730.10164857,-0.30026779,0.49027377,-0.82707667
1323444730.14976645,-0.29930651,0.49025404,-0.82613182
1323444730.20053029,-0.29880637,0.49075666,-0.82865685
1323444730.25001121,-0.29873863,0.49146548,-0.82738376
1323444730.30343843,-0.29922128,0.49038145,-0.82689273
1323444730.34963560,-0.29960760,0.49086618,-0.82678986
1323444730.40052772,-0.30009097,0.49064764,-0.82847154
1323444730.44891143,-0.29791182,0.49086991,-0.82886350
1323444730.50150490,-0.29963034,0.49077356,-0.82946670
1323444730.54851460,-0.29912594,0.49110839,-0.82740241
1323444730.60156465,-0.29873770,0.49134502,-0.82738286
1323444730.64855719,-0.29879534,0.49123570,-0.82840478
1323444730.69852972,-0.29955414,0.49210560,-0.83023667
1323444730.74912643,-0.29807201,0.49099737,-0.82938296
1323444730.80049872,-0.29974777,0.49026808,-0.82704818
1323444730.84052610,-0.29922837,0.49112788,-0.82919234
1323444730.90052176,-0.29988825,0.49342239,-0.82911742
1323444730.94970751,-0.29956520,0.49280608,-0.82807577
1323444731.00048637,-0.29806301,0.49097234,-0.82696092
1323444731.04938650,-0.29968810,0.49088150,-0.82819623
1323444731.10051346,-0.30021930,0.49062541,-0.82618445
1323444731.14951921,-0.29810229,0.49134070,-0.82760292
1323444731.20048523,-0.29899853,0.49125108,-0.82969040
1323444731.24887133,-0.29702088,0.49146503,-0.82907385
1323444731.30048537,-0.29958576,0.48989969,-0.82652694
1323444731.34897780,-0.29901427,0.49062929,-0.82777524
1323444731.40051508,-0.29940882,0.49123588,-0.82780117
1323444731.44955897,-0.29891714,0.49111527,-0.82828313
1323444731.50453997,-0.30002409,0.49147695,-0.82719934
1323444731.54878783,-0.29911223,0.49122605,-0.82714766
1323444731.60553956,-0.30030426,0.49124306,-0.82759535
1323444731.64853621,-0.29880908,0.49111804,-0.82865953
1323444731.70155883,-0.29907280,0.49064043,-0.82879806
1323444731.74972844,-0.29888135,0.49219108,-0.82752419
1323444731.80054903,-0.30025968,0.48918962,-0.82706851
1323444731.84948254,-0.30055800,0.49040267,-0.82760328
1323444731.90206790,-0.30028039,0.49078068,-0.82950240
1323444731.94854593,-0.29824975,0.49074399,-0.82798904
1323444732.00051165,-0.29965499,0.49113914,-0.82985300
1323444732.04873729,-0.29917267,0.49051583,-0.82829285
1323444732.10164905,-0.29921669,0.49074143,-0.82676756
1323444732.15003324,-0.29872218,0.49122179,-0.82712626
1323444732.20054126,-0.30064195,0.49186215,-0.82889265
1323444732.24864912,-0.29672697,0.49181661,-0.82842308
1323444732.29804254,-0.30007756,0.48905799,-0.82616556
1323444732.34862614,-0.30089489,0.49111858,-0.82660729
1323444732.40555978,-0.29760340,0.49025640,-0.82807761
1323444732.44478130,-0.29815373,0.49060538,-0.82632607
1323444732.50051761,-0.29925373,0.49353853,-0.82933837
1323444732.54853916,-0.30147538,0.49041405,-0.82778102
1323444732.60164905,-0.29880661,0.49001160,-0.82648504
1323444732.64849091,-0.29882383,0.49133807,-0.82662290
1323444732.70051408,-0.29809499,0.49133930,-0.82747507
1323444732.74855590,-0.29812345,0.49026209,-0.82810616
1323444732.80064082,-0.30071029,0.48870093,-0.82594275
1323444732.84853435,-0.29823443,0.48987567,-0.82556063
1323444732.90164351,-0.29785985,0.49095696,-0.82567531
1323444732.94975781,-0.29984659,0.49098530,-0.82642150
1323444733.00150561,-0.29929626,0.49181587,-0.82576007
1323444733.04955864,-0.29860637,0.48961258,-0.82303035
1323444733.09763837,-0.30004200,0.48938873,-0.82323480
1323444733.14925361,-0.29824740,0.48985481,-0.82352215
1323444733.20155096,-0.29823908,0.49069527,-0.82327282
1323444733.24877834,-0.29774201,0.49103147,-0.82133639
1323444733.30081105,-0.29828680,0.49044043,-0.82187176
1323444733.34961557,-0.29855505,0.49056512,-0.82201481
1323444733.40052390,-0.29825193,0.49163669,-0.82111371
1323444733.44886589,-0.29644930,0.49005631,-0.82151353
1323444733.50448322,-0.29801846,0.49127802,-0.82160813
1323444733.54908943,-0.29883274,0.48922482,-0.82023627
1323444733.60053778,-0.29952040,0.48957664,-0.81861973
1323444733.64851046,-0.29810849,0.48886603,-0.82121360
1323444733.68892717,-0.29871175,0.49042800,-0.82023823
1323444733.74988008,-0.29969150,0.49018735,-0.81927061
1323444733.80154061,-0.30123973,0.49174261,-0.81669027
1323444733.84953856,-0.29956049,0.49102774,-0.81914198
1323444733.90051103,-0.29865861,0.49113962,-0.81922084
1323444733.94868493,-0.29916403,0.49114254,-0.81899369
1323444734.00159407,-0.30077457,0.49008664,-0.82009387
1323444734.04849219,-0.29995367,0.48872375,-0.81723553
1323444734.10053110,-0.29989129,0.48897579,-0.81838083
1323444734.14951468,-0.29900295,0.49089462,-0.81847334
1323444734.20049667,-0.30053371,0.49186844,-0.81792688
1323444734.24854374,-0.29962105,0.49053478,-0.81799483
1323444734.29823422,-0.30008456,0.48884565,-0.81724358
1323444734.34852290,-0.29970637,0.48944509,-0.81735456
1323444734.40104628,-0.29981512,0.49148738,-0.81673783
1323444734.44850111,-0.30026278,0.49138236,-0.81778115
1323444734.50054240,-0.29877761,0.49162012,-0.81897593
1323444734.54850507,-0.29851350,0.48834530,-0.81702650
1323444734.60153723,-0.29910108,0.48956677,-0.81808692
1323444734.64864564,-0.29969138,0.49114963,-0.81915003
1323444734.68948627,-0.29983515,0.49103338,-0.81941193
1323444734.74851346,-0.30026919,0.49126330,-0.81790811
1323444734.80152011,-0.30007794,0.49088931,-0.81687540
1323444734.84852743,-0.29825416,0.49038753,-0.81677198
1323444734.90165782,-0.29983547,0.48932603,-0.81736076
1323444734.94151163,-0.29950374,0.49125752,-0.81812102
1323444735.00054407,-0.29907703,0.49220857,-0.81733978
1323444735.04854703,-0.29994613,0.49064699,-0.81686646
1323444735.09795499,-0.30041113,0.49090612,-0.81816816
1323444735.14916039,-0.29744291,0.48991522,-0.81850833
1323444735.20152783,-0.29721114,0.49075976,-0.81888402
1323444735.24851441,-0.29999644,0.49053627,-0.81776053
1323444735.30053711,-0.30090764,0.48874211,-0.81805253
1323444735.34852004,-0.29931271,0.48895895,-0.81732953
1323444735.40165186,-0.29906046,0.49174762,-0.81937462
1323444735.44855809,-0.29858905,0.49042797,-0.82035893
1323444735.50393867,-0.29952130,0.48969710,-0.81862062
1323444735.54851794,-0.29956800,0.48910454,-0.81951106
1323444735.60052180,-0.29810110,0.49100649,-0.81855214
1323444735.64078379,-0.29865861,0.49113962,-0.81922084
1323444735.70163369,-0.29985237,0.49235988,-0.81954980
1323444735.74982524,-0.29980847,0.49235150,-0.81878269
1323444735.80154967,-0.29986835,0.48981348,-0.81787580
1323444735.84850001,-0.30032974,0.48959076,-0.81917387
1323444735.89780474,-0.29899269,0.49127689,-0.82051450
1323444735.94856763,-0.30013365,0.49032182,-0.82018787
1323444736.00051212,-0.29979146,0.48910043,-0.81888604
1323444736.04857302,-0.29951760,0.49017754,-0.81849641
1323444736.10055971,-0.29840592,0.49113816,-0.81933445
1323444736.14964271,-0.29995131,0.49211478,-0.81904370
1323444736.20051718,-0.29847637,0.49079072,-0.82061023
1323444736.24874520,-0.30088830,0.49006161,-0.81755108
1323444736.29777622,-0.29899955,0.48848817,-0.81871086
1323444736.34855628,-0.30010620,0.49055716,-0.81967831
1323444736.40057015,-0.29933906,0.49052775,-0.81759703
1323444736.44851732,-0.29917157,0.48921934,-0.81936270
1323444736.50052881,-0.30085474,0.48752913,-0.81727636
1323444736.54850507,-0.30056703,0.48968622,-0.81651133
1323444736.60136414,-0.29980171,0.48871815,-0.81684482
1323444736.64850235,-0.29776147,0.49110878,-0.81713241
1323444736.68950677,-0.29959345,0.49055287,-0.81977761
1323444736.74852037,-0.30007872,0.49079251,-0.81916869
1323444736.80951405,-0.30138719,0.49114591,-0.81707639
1323444736.84853172,-0.30095232,0.48983324,-0.81869996
1323444736.90111756,-0.30037916,0.49053916,-0.81765407
1323444736.94952130,-0.29860008,0.49112847,-0.81819803
1323444737.00050783,-0.30223250,0.48815963,-0.81863070
1323444737.04951072,-0.30115381,0.48982492,-0.81769139
1323444737.09891081,-0.29777083,0.48942649,-0.81750327
1323444737.14886117,-0.30026174,0.49104464,-0.82007259
1323444737.20050907,-0.29961169,0.49103752,-0.82003695
1323444737.24850535,-0.29989851,0.48993951,-0.81838810
1323444737.30153513,-0.30034167,0.48923215,-0.81942689
1323444737.34862971,-0.30053753,0.48924613,-0.82058465
1323444737.40051866,-0.29898831,0.48971227,-0.82063061
1323444737.44153738,-0.30004472,0.49092969,-0.82082456
1323444737.50057459,-0.29781607,0.49234542,-0.82020283
1323444737.54867649,-0.29927638,0.49248713,-0.82079357
1323444737.60054588,-0.29910639,0.49007228,-0.82038474
1323444737.64853263,-0.30034941,0.49084410,-0.82389921
1323444737.68964696,-0.29952815,0.49118859,-0.82309204
1323444737.74978232,-0.29941198,0.49010718,-0.82346028
1323444737.80050159,-0.29915288,0.49140435,-0.82103395
1323444737.84853530,-0.29941931,0.49010855,-0.82358813
1323444737.89819717,-0.29717231,0.49200198,-0.82258648
1323444737.94082713,-0.29906654,0.49215633,-0.82396573
1323444738.00053406,-0.29942819,0.49227548,-0.82347661
1323444738.04859924,-0.29998326,0.49130219,-0.82197082
1323444738.10062909,-0.30005023,0.48951060,-0.82336354
1323444738.14995217,-0.29896128,0.49155816,-0.82446545
1323444738.18850136,-0.29947039,0.49108061,-0.82436252
1323444738.24853635,-0.29913586,0.49361303,-0.82499945
1323444738.30062699,-0.30133244,0.49279264,-0.82498646
1323444738.34849477,-0.29941267,0.49097267,-0.82563299
1323444738.40051031,-0.29930213,0.48986900,-0.82383490
1323444738.44158912,-0.29802644,0.49214491,-0.82390869
1323444738.50055671,-0.29962328,0.49120671,-0.82475412
1323444738.54973912,-0.30130893,0.49180248,-0.82242930
1323444738.60063076,-0.29994577,0.48999518,-0.82374364
1323444738.64850950,-0.29945847,0.49143922,-0.82410955
1323444738.69783592,-0.30006012,0.48965612,-0.82578653
1323444738.74863052,-0.29846328,0.49059433,-0.82494110
1323444738.80054164,-0.30015525,0.49085379,-0.82503563
1323444738.84854436,-0.30046478,0.48966318,-0.82606363
1323444738.90052867,-0.29956833,0.49049783,-0.82614791
1323444738.94966125,-0.30049384,0.49159336,-0.82633382
1323444739.00056815,-0.29916635,0.49085215,-0.82587355
1323444739.04942036,-0.30006295,0.49023476,-0.82349688
1323444739.10452652,-0.29918033,0.48998943,-0.82395655
1323444739.14857292,-0.29852566,0.49034229,-0.82379574
1323444739.20954180,-0.29879481,0.49058747,-0.82393968
1323444739.24866080,-0.29975981,0.49012676,-0.82500875
1323444739.30052161,-0.29992008,0.48929191,-0.82564878
1323444739.34955716,-0.30037811,0.48902187,-0.82235849
1323444739.40052676,-0.30155420,0.49158528,-0.82448024
1323444739.44856071,-0.29873985,0.48987859,-0.82533348
1323444739.50154591,-0.30020669,0.49011850,-0.82375878
1323444739.54854083,-0.30204508,0.49062309,-0.82411796
1323444739.60554934,-0.29963183,0.48962119,-0.82283169
1323444739.64854550,-0.29968753,0.49023327,-0.82373118
1323444739.70053577,-0.30028164,0.49037337,-0.82503909
1323444739.75048780,-0.29963982,0.49048811,-0.82513219
1323444739.80052376,-0.30108389,0.48964107,-0.82329369
1323444739.84854746,-0.30044216,0.48879349,-0.82350737
1323444739.89841318,-0.30128145,0.49085826,-0.82433265
1323444739.94849825,-0.29879749,0.49094886,-0.82394242
1323444740.00053430,-0.30060685,0.48952326,-0.82403135
1323444740.04851913,-0.29910275,0.48841089,-0.82279408
1323444740.10049605,-0.29912561,0.48853552,-0.82317853
